sat.trackr.live / text

‹ back to catalog

STARLINK-34243

NORAD 64361 · 2025-126T

PAYLOAD ACTIVE UNKNOWN

§ Identity

Operator
Country
US
Launch date
2025-06-13
Launch site
AFWTR
Launch vehicle
Mass (kg)
RCS (m²)

Purposes: comms

External: N2YO · Heavens-Above · Gunter

§ Orbital elements

Epoch: 2026-09-20T09:58:13.038816Z

Period
94.14 min
Inclination
70.0011°
Eccentricity
0.0003847
Mean motion
15.29593348 rev/d
Perigee alt
474.4 km
Apogee alt
479.7 km
Semi-major
6,855.2 km
B*
3.5543e-4
RAAN
260.9440°
Arg perigee
283.8698°
Mean anomaly
76.2048°
Rev number
6,991

§ Raw data

STARLINK-342431 64361U 25126T   26263.41542869  .00010108  00000+0  35543-3 0  99962 64361  70.0011 260.9440 0003847 283.8698  76.2048 15.29593348 69913

JSON: /api/v1/satellites/64361 · /tle

For live sub-satellite position, see the globe view (requires WebGL).

§ Visibility from observer

Set your observer location to see the next 7 days of passes ≥ 10°. The values pass through the URL so the page stays shareable.

No JS? Fill the form by hand. The geolocation button needs JavaScript.